This is the latest recevied weather packets stored in our database for station/object K1BWE-1. If no packets are shown the sender has not sent any weather packets the latest 1 day(s).
| Time | Temp. | Humidity | Pressure | Rain* | Wind** | Luminosity | Snow |
|---|---|---|---|---|---|---|---|
| 1778027172 | 21.67° C | 33% | 1011.6 hPa | 0 mm | 1.79 m/s, 157° | 194 W/m² | - |
| 1778026869 | 21.67° C | 32% | 1011.5 hPa | 0 mm | 3.13 m/s, 280° | 199 W/m² | - |
| 1778026565 | 22.22° C | 35% | 1011.7 hPa | 0 mm | 1.34 m/s, 248° | 234 W/m² | - |
| 1778026262 | 21.67° C | 33% | 1011.8 hPa | 0 mm | 2.24 m/s, 320° | 245 W/m² | - |
| 1778025960 | 22.22° C | 34% | 1011.5 hPa | 0 mm | 1.79 m/s, 271° | 162 W/m² | - |
| 1778025657 | 22.22° C | 33% | 1011.7 hPa | 0 mm | 3.58 m/s, 273° | 272 W/m² | - |
| 1778025355 | 22.78° C | 33% | 1011.4 hPa | 0 mm | 3.13 m/s, 262° | 316 W/m² | - |
| 1778025052 | 22.22° C | 33% | 1011.6 hPa | 0 mm | 1.79 m/s, 295° | 319 W/m² | - |
| 1778024748 | 22.78° C | 32% | 1011.5 hPa | 0 mm | 3.13 m/s, 287° | 348 W/m² | - |
| 1778024444 | 22.78° C | 33% | 1011.5 hPa | 0 mm | 2.24 m/s, 292° | 356 W/m² | - |
| 1778024142 | 22.22° C | 32% | 1011.3 hPa | 0 mm | 2.24 m/s, 142° | 384 W/m² | - |
| 1778023839 | 22.78° C | 33% | 1011.4 hPa | 0 mm | 2.24 m/s, 230° | 424 W/m² | - |
| 1778023537 | 22.78° C | 31% | 1011.6 hPa | 0 mm | 3.13 m/s, 296° | 476 W/m² | - |
| 1778023235 | 22.78° C | 31% | 1011.4 hPa | 0 mm | 1.79 m/s, 268° | 484 W/m² | - |
| 1778022931 | 22.22° C | 32% | 1011.7 hPa | 0 mm | 1.34 m/s, 324° | 456 W/m² | - |
| 1778022630 | 22.22° C | 32% | 1011.6 hPa | 0 mm | 1.79 m/s, 235° | 127 W/m² | - |
| 1778022327 | 22.78° C | 31% | 1011.4 hPa | 0 mm | 3.13 m/s, 249° | 552 W/m² | - |
| 1778022023 | 22.78° C | 32% | 1011.4 hPa | 0 mm | 1.34 m/s, 266° | 547 W/m² | - |
| 1778021720 | 22.78° C | 32% | 1011.7 hPa | 0 mm | 2.68 m/s, 256° | 532 W/m² | - |
| 1778021416 | 22.78° C | 33% | 1011.6 hPa | 0 mm | 1.34 m/s, 229° | 542 W/m² | - |
| 1778021114 | 22.78° C | 33% | 1011.7 hPa | 0 mm | 1.34 m/s, 269° | 570 W/m² | - |
| 1778020811 | 22.22° C | 33% | 1011.6 hPa | 0 mm | 3.58 m/s, 258° | 589 W/m² | - |
| 1778020508 | 21.67° C | 34% | 1011.6 hPa | 0 mm | 2.68 m/s, 257° | 651 W/m² | - |
| 1778020216 | 21.67° C | 34% | 1011.8 hPa | 0 mm | 2.68 m/s, 263° | 642 W/m² | - |
| 1778019900 | 21.67° C | 35% | 1011.8 hPa | 0 mm | 2.68 m/s, 160° | 441 W/m² | - |
* Rain latest hour (hover to see other rain measurements)
** Current wind speed in m/s (hover to see current wind gust speed)